sat.trackr.live / text

‹ back to catalog

JCSAT-17

NORAD 45245 · 2020-013A

PAYLOAD ACTIVE UNKNOWN

§ Identity

Operator
Country
JPN
Launch date
2020-02-18
Launch site
FRGUI
Launch vehicle
Mass (kg)
RCS (m²)

Purposes: comms

External: N2YO · Heavens-Above · Gunter

§ Orbital elements

Epoch: 2026-09-19T20:28:51.510144Z

Period
1,436.09 min
Inclination
5.3981°
Eccentricity
0.0004442
Mean motion
1.00272273 rev/d
Perigee alt
35,767.7 km
Apogee alt
35,805.2 km
Semi-major
42,164.6 km
B*
0.0000e+0
RAAN
357.7372°
Arg perigee
178.8893°
Mean anomaly
265.3396°
Rev number
2,418

§ Raw data

JCSAT-171 45245U 20013A   26262.85337396 -.00000316  00000+0  00000+0 0  99972 45245   5.3981 357.7372 0004442 178.8893 265.3396  1.00272273 24183

JSON: /api/v1/satellites/45245 · /tle

For live sub-satellite position, see the globe view (requires WebGL).

§ Visibility from observer

Set your observer location to see the next 7 days of passes ≥ 10°. The values pass through the URL so the page stays shareable.

No JS? Fill the form by hand. The geolocation button needs JavaScript.